Location: Allaines
(49.9632°N, 2.9458°E)
Time: 10:05:46
(UTC+00:00)

USA 186 - Pass Details

Date: 09 April 2020
Orbit: 261 x 446 km, 96.9° (Epoch: 04 June)

Event Time Altitude Azimuth Distance (km) Brightness Sun altitude
Rises 18:09:41 0° 126° (SE) 2,393 5.0 2.9°
Reaches altitude 10° 18:12:20 10° 103° (ESE) 1,498 3.9 2.5°
Drops below altitude 10° 18:16:08 10° 29° (NNE) 1,449 4.3 1.9°
Enters shadow 19:11:40 -64° 169° (S) 11,851 9.0 -6.7°
Maximum altitude 19:45:00 38° 261° (W) 647 3.2 -11.6°
